Powrót do katalogu

IRIDIUM 161

AktywnyŁącznośćPO
NORAD 43478·PAYLOAD·🇺🇸 United States

Wystrzelony May 22, 2018 z Vandenberg Space Force Base

Loading…

Następne Przeloty (najbliższe 24 godziny)

TLE

ŚwieżeSource: CelesTrak SupGP

Epoka: Sep 14, 2026, 22:22 UTC

1 43478C 18047C   26257.93229167  .00002529  00000+0  75276-3 0  2571
2 43478  86.4469  50.9123 0002337  97.1706 158.4156 14.43279085    14

Śledź IRIDIUM 161 w czasie rzeczywistym z AllMySat

Download on the App Store